Flag for Germany Weather past 2 weeks in Suhl, Thuringia, Germany

Now
57 °F

Overcast.


Feels Like: 57 °F
Forecast: 54 / 67 °F
Wind: 1 mph from Southwest

Location: Meiningen

Current Time: Aug 29, 2014 at 1:36:02 AM

Latest Report: Aug 29, 2014 at 1:00 AM


Visibility: 17 mi

Pressure: 30.02 "Hg

Humidity: 89%

Dew point: 54 °F

Location of SuhlLocation

Historic Weather in Suhl — Graph

°F

Suhl temperature yesterday

Maximum temperature yesterday: 69 °F (at 4:00 PM)
Minimum temperature yesterday: 45 °F (at 6:00 AM)
Average temperature yesterday: 57 °F

Past Weeks' High & Low Weather Summary

 TemperatureHumidityPressure
High69 °F (Aug 28, 4:00 PM)98% (Aug 19, 8:00 AM)30.13 "Hg (Aug 19, 8:00 AM)
Low41 °F (Aug 22, 6:00 AM)35% (Aug 22, 4:00 PM)29.68 "Hg (Aug 26, 9:00 AM)
Average54 °F78%29.94 "Hg
* Reported Midnight between Aug 13 and Aug 14 — Midnight between Aug 28 and Aug 29, Suhl, Weather by CustomWeather, © 2014

Note: Actual official high and low records may vary slightly from our data, if they occured in-between our weather recording intervals... More about our weather records

Advertising

Suhl weather history for previous 24 hours

 ConditionsComfort  
Time TempWeatherWind HumidityBarometerVisibility
12:00 AM
Aug 29
59 °FOvercast.1 mph84%30.01 "Hg25 mi
10:00 PM
Aug 28
61 °FOvercast.2 mph78%30.01 "Hg34 mi
9:00 PM63 °FOvercast.1 mph71%30.00 "Hg43 mi
8:00 PM65 °FOvercast.2 mph65%29.99 "Hg43 mi
7:00 PM67 °FOvercast.2 mph61%29.98 "Hg43 mi
6:00 PM68 °FOvercast.3 mph54%29.99 "Hg37 mi
4:00 PM69 °FScattered clouds.5 mph48%30.00 "Hg37 mi
3:00 PM67 °FPartly sunny.3 mph53%30.02 "Hg31 mi
2:00 PM67 °FScattered clouds.5 mph56%30.03 "Hg28 mi
1:00 PM64 °FPassing clouds.5 mph61%30.05 "Hg25 mi
12:00 PM63 °FScattered clouds.3 mph61%30.06 "Hg28 mi
10:00 AM55 °FScattered clouds.2 mph79%30.10 "Hg31 mi
9:00 AM51 °FScattered clouds.2 mph84%30.11 "Hg31 mi
8:00 AM48 °FFog.2 mph90%30.11 "Hg31 mi
7:00 AM46 °FFog.2 mph93%30.11 "Hg37 mi
6:00 AM45 °FFog.2 mph95%30.11 "Hg31 mi
4:00 AM46 °FClear.1 mph95%30.11 "Hg12 mi
3:00 AM47 °FClear.1 mph94%30.10 "Hg15 mi
2:00 AM48 °FPassing clouds.No wind92%30.11 "Hg19 mi
1:00 AM49 °FClear.1 mph92%30.10 "Hg22 mi
Weather by CustomWeather, © 2014

See weather overviewHow to use our weather pages